Pensacola, FL

3:46 AM CST on February 10, 2016 (GMT -0600)
Pensacola Naval Air Station

Weather History for KNPA - March, 2013

Change the Weather History Date:

Saturday, March 30, 2013

  Actual Average Record
Temperature  
Mean Temperature 59 °F -  
Max Temperature 73 °F 70 °F 78 °F (1997)
Min Temperature 46 °F 53 °F 44 °F (2003)
Degree Days  
Heating Degree Days 6    
Growing Degree Days 9 (Base 50)    
Moisture  
Dew Point 51 °F    
Average Humidity 89    
Maximum Humidity 100    
Minimum Humidity 55    
Precipitation  
Precipitation 0.00 in - - ()
Sea Level Pressure  
Sea Level Pressure 30.17 in    
Wind  
Wind Speed 1 mph (South)    
Max Wind Speed 10 mph    
Max Gust Speed -    
Visibility 4 miles    
Events Fog , Rain    
Averages and records for this station are not official NWS values.
T = Trace of Precipitation, MM = Missing Value Source: NWS Daily Summary

Daily Weather History Graph

Daily Weather History Graph

Search for Another Location

Airport or City:

Trip Planner

Search our weather history database for the weather conditions in past years. The results will help you decide how hot, cold, wet, or windy it might be!

Date:

Astronomy

Mar. 30, 2013 Rise Set
Actual Time 6:40 AM CDT 7:07 PM CDT
Civil Twilight 6:16 AM CDT 7:31 PM CDT
Nautical Twilight 5:48 AM CDT 7:59 PM CDT
Astronomical Twilight 5:19 AM CDT 8:28 PM CDT
Moon 10:56 PM CDT (3/30) 8:51 AM CDT (3/30)
Length of Visible Light 13h 14m
Length of Day
12h 26m
Waning Gibbous, 86% of the Moon is Illuminated
Mar 30
Waning Gibbous
Apr 2
Last Quarter
Apr 10
New
Apr 18
First Quarter
Apr 25
Full

Hourly Weather History & Observations

Time (CDT) Temp. Dew Point Humidity Pressure Visibility Wind Dir Wind Speed Gust Speed Precip Events Conditions
12:56 AM 48.9 °F 48.0 °F 97% 30.22 in 1.2 mi Calm Calm - 0.00 in   Partly Cloudy
1:26 AM 50.0 °F 50.0 °F 100% 30.21 in 0.8 mi Calm Calm - N/A   Mist
1:28 AM 50.0 °F 50.0 °F 100% 30.21 in 1.2 mi Calm Calm - N/A   Partly Cloudy
1:31 AM 50.0 °F 48.2 °F 94% 30.21 in 3.0 mi Calm Calm - 0.00 in Rain Light Rain
1:37 AM 50.0 °F 48.2 °F 94% 30.21 in 1.5 mi Calm Calm - 0.00 in Rain Light Rain
1:46 AM 48.2 °F 48.2 °F 100% 30.21 in 0.5 mi Calm Calm - 0.00 in Fog Fog
1:56 AM 48.9 °F 48.0 °F 97% 30.21 in 0.2 mi Calm Calm - 0.00 in Fog Fog
2:17 AM 50.0 °F 48.2 °F 94% 30.19 in 1.0 mi Calm Calm - N/A   Mist
2:19 AM 50.0 °F 48.2 °F 94% 30.19 in 2.5 mi Calm Calm - N/A   Partly Cloudy
2:24 AM 50.0 °F 48.2 °F 94% 30.19 in 1.0 mi Calm Calm - N/A   Mist
2:32 AM 48.2 °F 48.2 °F 100% 30.19 in 0.5 mi Calm Calm - N/A Fog Fog
2:42 AM 48.2 °F 48.2 °F 100% 30.18 in 0.2 mi Calm Calm - N/A Fog Fog
2:51 AM 48.2 °F 48.2 °F 100% 30.19 in 1.0 mi Calm Calm - N/A   Mist
2:53 AM 48.2 °F 48.2 °F 100% 30.18 in 3.0 mi Calm Calm - N/A   Partly Cloudy
2:56 AM 48.9 °F 48.0 °F 97% 30.19 in 8.0 mi Calm Calm - N/A   Partly Cloudy
3:31 AM 46.4 °F 46.4 °F 100% 30.18 in 2.5 mi Calm Calm - N/A   Mostly Cloudy
3:33 AM 46.4 °F 46.4 °F 100% 30.17 in 1.0 mi Calm Calm - 0.00 in Rain Light Rain
3:37 AM 46.4 °F 46.4 °F 100% 30.17 in 0.2 mi Calm Calm - 0.00 in Fog , Rain Light Rain
3:56 AM 48.0 °F 46.9 °F 96% 30.18 in 0.2 mi Calm Calm - 0.00 in Fog Fog
4:18 AM 46.4 °F 46.4 °F 100% 30.17 in 0.8 mi Calm Calm - N/A   Mist
4:21 AM 46.4 °F 46.4 °F 100% 30.17 in 1.2 mi Calm Calm - N/A   Scattered Clouds
4:34 AM 46.4 °F 46.4 °F 100% 30.17 in 3.0 mi Calm Calm - N/A   Scattered Clouds
4:56 AM 48.0 °F 46.9 °F 96% 30.18 in 10.0 mi Calm Calm - N/A   Partly Cloudy
5:10 AM 48.2 °F 46.4 °F 93% 30.18 in 10.0 mi Calm Calm - N/A   Mostly Cloudy
5:23 AM 46.4 °F 46.4 °F 100% 30.18 in 1.5 mi Calm Calm - N/A   Overcast
5:36 AM 46.4 °F 46.4 °F 100% 30.18 in 0.5 mi Calm Calm - N/A Fog Fog
5:44 AM 46.4 °F 46.4 °F 100% 30.18 in 0.2 mi Calm Calm - N/A Fog Fog
5:56 AM 46.9 °F 46.0 °F 97% 30.19 in 0.8 mi Calm Calm - N/A   Mist
6:03 AM 46.4 °F 46.4 °F 100% 30.18 in 1.0 mi Calm Calm - N/A   Mist
6:10 AM 46.4 °F 46.4 °F 100% 30.19 in 0.5 mi Calm Calm - N/A Fog Fog
6:35 AM 46.4 °F 46.4 °F 100% 30.18 in 0.2 mi Calm Calm - N/A Fog Fog
6:56 AM 46.9 °F 46.9 °F 100% 30.19 in 0.2 mi Calm Calm - N/A Fog Fog
7:37 AM 50.0 °F 50.0 °F 100% 30.19 in 0.5 mi Calm Calm - N/A Fog Fog
7:41 AM 51.8 °F 51.8 °F 100% 30.19 in 1.2 mi Calm Calm - N/A   Scattered Clouds
7:47 AM 53.6 °F 53.6 °F 100% 30.19 in 3.0 mi Calm Calm - N/A   Partly Cloudy
7:56 AM 55.0 °F 55.0 °F 100% 30.20 in 6.0 mi Calm Calm - N/A   Clear
8:56 AM 66.0 °F 59.0 °F 78% 30.22 in 10.0 mi South 5.8 mph - N/A   Scattered Clouds
9:56 AM 69.1 °F 55.0 °F 61% 30.21 in 10.0 mi South 6.9 mph - N/A   Mostly Cloudy
10:56 AM 71.1 °F 55.0 °F 57% 30.21 in 10.0 mi SSE 9.2 mph - N/A   Mostly Cloudy
11:56 AM 71.1 °F 54.0 °F 55% 30.20 in 10.0 mi South 9.2 mph - N/A   Mostly Cloudy
12:56 PM 71.1 °F 54.0 °F 55% 30.19 in 10.0 mi South 8.1 mph - N/A   Mostly Cloudy
1:56 PM 72.0 °F 55.0 °F 55% 30.17 in 10.0 mi South 10.4 mph - N/A   Scattered Clouds
2:56 PM 71.1 °F 55.9 °F 59% 30.15 in 10.0 mi South 9.2 mph - N/A   Scattered Clouds
3:56 PM 70.0 °F 55.9 °F 61% 30.13 in 10.0 mi SSW 9.2 mph - N/A   Mostly Cloudy
4:56 PM 70.0 °F 57.0 °F 63% 30.11 in 10.0 mi South 9.2 mph - N/A   Mostly Cloudy
5:28 PM 68.0 °F 57.2 °F 68% 30.09 in 10.0 mi South 9.2 mph - N/A   Mostly Cloudy
5:56 PM 68.0 °F 57.0 °F 68% 30.09 in 10.0 mi SSE 8.1 mph - N/A   Clear
6:56 PM 66.0 °F 59.0 °F 78% 30.08 in 10.0 mi SSE 9.2 mph - N/A   Clear
7:56 PM 64.9 °F 59.0 °F 81% 30.08 in 10.0 mi South 6.9 mph - N/A   Partly Cloudy
8:56 PM 62.1 °F 59.0 °F 90% 30.07 in 10.0 mi South 5.8 mph - N/A   Clear
9:56 PM 63.0 °F 60.1 °F 90% 30.09 in 10.0 mi SSW 4.6 mph - N/A   Partly Cloudy
10:56 PM 64.0 °F 61.0 °F 90% 30.09 in 10.0 mi South 5.8 mph - N/A   Scattered Clouds
11:56 PM 64.9 °F 62.1 °F 90% 30.09 in 10.0 mi SSW 5.8 mph - N/A   Mostly Cloudy